[[{"header":{"parameterUnit":"m.s-1","parameterCategory":1,"la1":30.2992,"la2":30.254,"lo1":-89.0895,"lo2":-89.0443,"dy":0.0025,"dx":0.0025,"nx":19,"ny":19,"refTime":"2026-03-23T21:00:00:Z","depth":0,"parameterNumber":2,"parameterNumberName":"U-component_of_WINDS"},"data":[0,0,0,-5.0248,-5.0252,-5.048,-5.0481,-5.0767,-5.0769,0,0,0,0,0,0,0,0,0,0,0,-5.0176,-5.0178,-5.0247,-5.0253,-5.048,-5.0481,-5.0766,-5.0769,0,0,0,0,0,0,0,0,0,0,0,-5.0175,-5.0177,-5.018,-5.0254,-5.048,-5.0481,-5.0766,-5.0596,0,0,0,0,0,0,0,0,0,0,-5.0376,-5.0305,-5.0177,-5.018,-5.0255,-5.048,-5.0481,-5.0588,-5.0607,-5.0661,0,-5.0708,0,-5.0743,-5.0788,-5.0789,0,0,0,-5.0256,-5.029,-5.0355,-5.018,-5.0257,-5.0479,-5.0379,-5.0599,-5.062,-5.0686,-5.0712,-5.0722,-5.0748,-5.079,-5.0791,-5.1092,-5.1094,0,0,-5.0244,-5.0215,-5.0341,-5.0369,-5.0332,-5.0371,-5.0386,-5.0611,-5.0638,-5.0713,-5.0729,-5.0752,-5.0792,-5.0794,-5.1091,-5.1093,0,0,0,-5.0205,-5.0206,-5.0266,-5.0357,-5.0398,-5.0378,-5.0394,-5.0628,-5.065,-5.0732,-5.0756,-5.0793,-5.0797,-5.109,-5.1092,-5.1123,0,0,0,-5.0198,-5.0183,-5.026,-5.0245,-5.0394,-5.0516,-5.0405,-5.0634,-5.0661,-5.0754,-5.0793,-5.0799,-5.1089,-5.1091,-5.112,-5.1142,0,0,0,-5.0163,-5.0179,-5.0211,-5.0242,-5.0339,-5.0513,-5.0548,-5.0641,-5.0675,-5.0789,-5.08,-5.1088,-5.109,-5.1116,-5.1136,-5.1211,0,0,0,-5.0117,-5.0236,-5.0211,-5.0354,-5.0337,-5.0531,-5.0547,-5.0693,-5.0795,-5.0795,-5.1089,-5.1092,-5.1115,-5.1133,-5.1207,-5.1266,-5.1288,0,0,-5.0251,-5.0251,-5.0338,-5.0322,-5.0513,-5.0499,-5.0696,-5.0817,-5.0855,-5.1011,-5.1019,-5.1121,-5.1136,-5.121,-5.1431,-5.1449,0,0,0,-5.0371,-5.0432,-5.0489,-5.0585,-5.0681,-5.0765,-5.086,-5.0906,-5.104,-5.0929,-5.1171,-5.1181,-5.1225,-5.1255,-5.127,-5.1309,-5.1105,-5.1105,-5.1104,-5.0516,-5.0559,-5.0705,-5.0776,-5.0869,-5.0967,-5.1047,-5.1125,-5.1141,-5.1198,-5.1243,-5.1372,-5.1405,-5.1416,-5.1457,-5.1281,-5.1281,-5.1281,-5.1281,-5.0714,-5.0806,-5.0828,-5.0976,-5.1022,-5.1148,-5.1249,-5.1256,-5.138,-5.1341,-5.1382,-5.1332,-5.1434,-5.1472,-5.1284,-5.1283,-5.1283,-5.1283,-5.1283,-5.081,-5.0862,-5.0917,-5.1061,-5.1168,-5.1238,-5.1356,-5.1394,-5.1432,-5.1473,-5.1524,-5.1524,-5.1525,-5.1496,-5.1496,-5.1497,-5.1497,-5.1497,-5.1498,-5.0887,-5.0948,-5.1042,-5.1156,-5.1223,-5.1317,-5.142,-5.1488,-5.1573,-5.1592,-5.1592,-5.1601,-5.1438,-5.1393,-5.1505,-5.1503,-5.1502,-5.1502,-5.1501,-5.1064,-5.1031,-5.1176,-5.1244,-5.1382,-5.1486,-5.1536,-5.1671,-5.1733,-5.1791,-5.1794,-5.1668,-5.167,-5.1658,-5.1622,-5.1785,-5.1785,-5.1785,-5.1785,-5.1142,-5.1149,-5.1306,-5.1412,-5.1521,-5.1582,-5.1746,-5.1828,-5.1908,-5.195,-5.1933,-5.189,-5.1876,-5.1887,-5.187,-5.1836,-5.2051,-5.2051,-5.2051,-5.1253,-5.1272,-5.1402,-5.148,-5.1593,-5.1688,-5.1843,-5.1965,-5.205,-5.2063,-5.1983,-5.1972,-5.1902,-5.1877,-5.1882,-5.1856,-5.1794,0,0]},{"header":{"parameterUnit":"m.s-1","parameterCategory":1,"la1":30.2992,"la2":30.254,"lo1":-89.0895,"lo2":-89.0443,"dy":0.0025,"dx":0.0025,"nx":19,"ny":19,"refTime":"2026-03-23T21:00:00:Z","depth":0,"parameterNumber":3,"parameterNumberName":"V-component_of_WINDS"},"data":[0,0,0,2.7897,2.7897,2.7903,2.7903,2.7904,2.7904,0,0,0,0,0,0,0,0,0,0,0,2.7893,2.7893,2.7897,2.7897,2.7903,2.7903,2.7904,2.7904,0,0,0,0,0,0,0,0,0,0,0,2.7893,2.7893,2.7893,2.7897,2.7903,2.7903,2.7904,2.7901,0,0,0,0,0,0,0,0,0,0,2.7897,2.789,2.7893,2.7893,2.7897,2.7903,2.7903,2.7901,2.7902,2.7899,0,2.7897,0,2.7901,2.7904,2.7904,0,0,0,2.7899,2.789,2.7894,2.7893,2.7897,2.7903,2.7901,2.7902,2.7902,2.7899,2.7897,2.7897,2.7901,2.7904,2.7903,2.7888,2.7888,0,0,2.7898,2.7891,2.7894,2.7894,2.7895,2.7901,2.7901,2.7902,2.7898,2.7897,2.7897,2.7901,2.7903,2.7903,2.7888,2.7888,0,0,0,2.7896,2.7891,2.7896,2.7894,2.7896,2.7901,2.7901,2.7898,2.7901,2.7897,2.7901,2.7903,2.7903,2.7888,2.7888,2.7875,0,0,0,2.7896,2.789,2.7896,2.7891,2.7896,2.7898,2.7898,2.79,2.7901,2.7901,2.7903,2.7903,2.7888,2.7888,2.7876,2.787,0,0,0,2.7893,2.789,2.789,2.7891,2.7894,2.7898,2.79,2.7901,2.7903,2.7904,2.7903,2.7888,2.7888,2.7877,2.7871,2.7864,0,0,0,2.7887,2.7877,2.789,2.788,2.7894,2.7891,2.79,2.7898,2.7897,2.7903,2.7888,2.7888,2.7877,2.7871,2.7865,2.7857,2.7854,0,0,2.787,2.7875,2.7869,2.7881,2.7875,2.7891,2.7882,2.7886,2.7891,2.7888,2.7888,2.7876,2.7871,2.7864,2.7837,2.7834,0,0,0,2.7862,2.7858,2.7858,2.7858,2.7864,2.7867,2.7875,2.7877,2.7875,2.7889,2.7872,2.7869,2.7866,2.7862,2.786,2.7857,2.7886,2.7886,2.7886,2.7826,2.7837,2.7829,2.784,2.7841,2.785,2.7851,2.7855,2.7862,2.7858,2.7857,2.784,2.7835,2.7834,2.7831,2.7854,2.7854,2.7854,2.7854,2.7802,2.7798,2.7813,2.781,2.7821,2.7818,2.7827,2.7833,2.7832,2.7841,2.7838,2.7846,2.783,2.7828,2.7853,2.7854,2.7854,2.7854,2.7854,2.7779,2.7779,2.7784,2.7788,2.779,2.7801,2.7801,2.7809,2.7817,2.7815,2.7815,2.7815,2.7816,2.7815,2.7815,2.7815,2.7815,2.7815,2.7815,2.7752,2.7759,2.7758,2.7766,2.7769,2.7773,2.7785,2.7787,2.7792,2.7799,2.7799,2.7806,2.7828,2.7832,2.7814,2.7814,2.7814,2.7814,2.7814,2.7722,2.7731,2.773,2.7733,2.7744,2.7746,2.7759,2.7764,2.7767,2.7766,2.7776,2.7791,2.7795,2.7797,2.78,2.7775,2.7775,2.7775,2.7775,2.7702,2.7706,2.7708,2.7713,2.7719,2.7732,2.773,2.774,2.775,2.7753,2.7759,2.7765,2.7767,2.7769,2.7772,2.7776,2.7744,2.7744,2.7744,2.7683,2.769,2.7686,2.77,2.771,2.7718,2.7716,2.772,2.7734,2.7743,2.7755,2.7757,2.7767,2.777,2.7776,2.778,2.7787,0,0]}]]